www.pogodaiklimat.ru

Погода и климат >> Архив погоды >> Оман >> Сухар


ПОГОДА в Сухаре

  • Прогноз погоды в Сухаре
  • Монитор погоды в Сухаре

АРХИВ ПОГОДЫ в Сухаре

Время (UTC), дата Ветер
(напр.,м/с)
 
Видим.   Явления Облачность Т
(С)
Тd
(С)
f
(%)
Тe
(С)
Тes
(С)
Комфортность P
(гПа)
Po
(гПа)
Тmin
(С)
Tmax
(С)
R
(мм)
R24
(мм)
S
(см)
09 19.03 С 5 н/о н/о +26.7 +12.9 42 +28 +28 жарко 1013.1 1012.6
12 19.03 С 5 10 км ясно +28.2 +15.2 45 +31 +34 душно 1010.3 1010.1
15 19.03 С 8 10 км ясно +24.9 +11.1 42 +26 +26 жарко 1011.3 1011.1
18 19.03 С 5 10 км ясно +22.5 +11.0 48 +25 +25 комфорт 1013.2 1013.0 +30.8
21 19.03 СЗ 2 н/о н/о +19.9 +8.6 48 +22 +22 комфорт 1012.2 1011.8
00 20.03 СЗ 5 н/о н/о +18.5 +10.6 60 +19 +19 1011.2 1010.8
03 20.03 З 2 н/о н/о +18.4 +10.1 58 +19 +19 1012.6 1012.2
06 20.03 СВ 3 10 км ясно +22.1 +11.6 51 +24 +35 комфорт 1013.6 1013.4 +18.3
09 20.03 СВ 4 10 км ясно +25.2 +12.2 44 +27 +39 жарко 1012.1 1011.9
12 20.03 В 5 10 км ясно +24.6 +15.0 55 +27 +31 жарко 1009.9 1009.7
15 20.03 ЮВ 3 10 км ясно +22.5 +15.2 63 +26 +26 жарко 1011.1 1010.9
18 20.03 Ю 1 н/о н/о +22.1 +14.2 61 +25 +25 комфорт 1012.4 1011.9 +25.8
21 20.03 ЮЗ 1 н/о н/о +21.6 +12.2 55 +24 +24 комфорт 1011.5 1011.0
00 21.03 СЗ 1 н/о н/о +21.1 +15.3 69 +24 +24 комфорт 1010.6 1010.1
03 21.03 СЗ 1 н/о н/о +21.4 +12.3 56 +24 +24 комфорт 1012.7 1012.3
06 21.03 В 3 8000 м мгла 6/3 900 м
[Sc diur, vesp Ac und Ci sp]
+24.4 +15.1 56 +27 +34 жарко 1014.1 1013.9 +20.2
09 21.03 В 6 8000 м мгла 4/3 900 м
[Sc diur, vesp Ac trans]
+25.4 +17.4 61 +29 +34 душно 1012.7 1012.5
12 21.03 В 4 н/о н/о +25.0 +18.9 69 +30 +30 душно 1011.3 1010.8
15 21.03 В 3 н/о н/о +23.4 +19.4 78 +30 +30 очень
душно
1012.6 1012.1
18 21.03 Ю 3 н/о н/о +22.4 +19.3 83 +28 +28 душно 1014.4 1014.0 +25.9
21 21.03 ЮВ 3 н/о н/о +22.8 +19.3 81 +29 +29 очень
душно
1013.1 1012.6
00 22.03 З 2 н/о н/о +22.6 +19.3 82 +29 +29 очень
душно
1013.5 1013.0
03 22.03 С 3 н/о н/о +23.3 +19.5 79 +30 +30 очень
душно
1014.3 1013.9
06 22.03 ЮВ 3 10 км 8/3 900 м
[Sc diur, vesp Ac trans]
+24.8 +19.2 71 +30 +35 душно 1017.1 1016.9 +22.0
09 22.03 ЮВ 7 10 км 8/4 900 м
[Sc diur, vesp Ac trans]
+26.3 +21.5 75 +34 +36 очень
душно
1014.7 1014.5
12 22.03 В 6 н/о н/о +25.0 +20.5 76 +31 +31 очень
душно
1013.9 1013.4
15 22.03 В 6 н/о н/о +23.9 +21.2 85 +30 +30 очень
душно
1014.1 1013.7
18 22.03 С 4 н/о н/о +23.9 +22.3 91 +31 +31 очень
душно
1016.7 1016.2 +28.5
21 22.03 В 1 н/о н/о +23.0 +21.2 90 +31 +31 очень
душно
1014.8 1014.4
00 23.03 Ю 1 н/о н/о +21.0 +19.8 93 +27 +27 душно 1013.8 1013.3
03 23.03 штиль 0 н/о н/о +23.1 +18.0 73 +29 +29 очень
душно
1015.0 1014.5
06 23.03 С 5 н/о н/о +24.2 +21.6 85 +31 +31 очень
душно
1016.9 1016.5 +21.0
09 23.03 СВ 6 8000 м мгла {дождь} 8/4 750 м
[Cu Sc Ac As]
+24.9 +21.6 82 +32 +34 очень
душно
1014.6 1014.4
12 23.03 С 5 8000 м мгла 10/6 600 м
[Cu Sc Ac As]
+24.1 +18.3 70 +29 +29 душно 1013.4 1013.2
15 23.03 С 5 8000 м мгла 9/5 750 м
[Cu Sc Ac As]
+23.4 +17.9 71 +29 +29 душно 1014.0 1013.8
18 23.03 ЮВ 1 8000 м мгла 9/5 750 м
[Cu Sc Ac As]
+23.1 +18.2 74 +29 +29 очень
душно
1014.6 1014.4 +26.0
21 23.03 СЗ 2 н/о н/о +22.8 +17.3 71 +28 +28 душно 1013.0 1012.5
00 24.03 СЗ 2 н/о н/о +22.6 +18.1 76 +28 +28 душно 1012.8 1012.3
03 24.03 С 3 н/о н/о +22.7 +19.6 83 +29 +29 очень
душно
1012.9 1012.4
06 24.03 В 4 н/о н/о +25.0 +19.0 69 +30 +30 душно 1014.6 1014.1 +21.7
09 24.03 В 5 н/о н/о +25.7 +20.4 73 +32 +32 очень
душно
1011.6 1011.2
12 24.03 В 4 10 км 6/4 900 м
[Sc diur, vesp Ci fib]
+25.5 +21.6 79 +33 +35 очень
душно
1010.1 1009.9
15 24.03 СВ 4 н/о н/о +24.3 +21.5 84 +31 +31 очень
душно
1012.4 1011.9
18 24.03 В 2 10 км 5/0
[Ac trans Ci fib]
+24.3 +22.2 88 +32 +32 очень
душно
1012.9 1012.7 +26.7
21 24.03 СВ 4 н/о н/о +24.0 +21.1 84 +30 +30 очень
душно
1012.9 1012.4
00 25.03 СВ 3 н/о н/о +23.8 +21.9 89 +31 +31 очень
душно
1011.8 1011.4
03 25.03 СВ 3 н/о н/о +23.7 +22.4 92 +31 +31 очень
душно
1013.0 1012.5
06 25.03 В 4 8000 м мгла 9/5 540 м
[Sc Ac trans Ci fib]
+25.2 +23.2 89 +34 +36 очень
душно
1014.1 1013.9 +23.6
09 25.03 В 5 8000 м мгла 9/5 540 м
[Sc Ac As Ci fib]
+25.1 +23.4 90 +34 +37 очень
душно
1013.4 1013.2
12 25.03 В 5 10 км 10/6 540 м
[Sc Ac trans Cs]
+24.5 +22.4 88 +32 +33 очень
душно
1011.6 1011.4
15 25.03 В 4 8000 м мгла 8/5 240 м
[St Ac As Ci fib]
+24.1 +22.5 91 +32 +32 очень
душно
1012.5 1012.3
18 25.03 Ю 2 10 км 6/4 480 м
[Sc Ac As]
+23.9 +22.1 90 +31 +31 очень
душно
1012.5 1012.3 +26.1
21 25.03 н/о н/о +24.1 +22.7 92 1012.3 1011.8
00 26.03 В 3 н/о н/о +23.7 +22.5 93 +31 +31 очень
душно
1010.7 1010.2
03 26.03 С 4 н/о н/о +24.3 +22.7 91 +32 +32 очень
душно
1013.7 1013.3
06 26.03 СВ 3 н/о н/о +25.6 +22.7 84 +34 +34 очень
душно
1014.9 1014.5 +23.5

 

Местоположение метеостанции Сухар (Оман): широта 24.47 долгота 56.63 высота над уровнем моря 4 м.

В архиве по умолчанию представлена погода в Сухаре за последнюю неделю. Архивные данные за месяц целиком и за предыдущие месяцы, начиная с января 2011 года, Вы можете получить, выбрав интересующий диапазон дат из раскрывающегося списка и нажав кнопку "Ввод!".


*Определитесь, кто Вы:
робот инопланетянин человек

Внимание! Время в таблицах - всемирное. Для получения местного времени необходимо прибавить поправку, которая равна 4 ч.

Смотрите также архив погоды в соседних городах и на ближайших метеорологических станциях:

Погода в Кумейре (Оман) (74 км)
Погода в Фуджейре (ОАЭ) (76 км)
Погода в Эль-Бурайми (Оман) (90 км)
Погода в Эс-Сувейке (Оман) (97 км)
Погода в Эль-Айне (ОАЭ) (107 км)
Погода в Ибри (Оман) (117 км)
Погода в Дибе (Оман) (134 км)
Погода в Рустаке (Оман) (144 км)
Погода в Рай-эль-Хайма аэропорту (ОАЭ) (146 км)
Погода в Шардже (ОАЭ) (147 км)

Пояснения к столбцам:

Ветер - указаны скорость ветра в м/с - средняя за 10 мин, порывы в срок и между сроками (в фигурных скобках) и направление, откуда дует ветер: С - северный, СВ - северо-восточный, В - восточный, ЮВ - юго-восточный, Ю - южный, ЮЗ - юго-западный, З - западный, СЗ - северо-западный.
Видимость - горизонтальная дальность видимости в метрах или километрах. При видимости от 1 до 10 км при отсутствии осадков обычно наблюдается дымка, при ухудшении видимости до 1 км и менее - туман. В сухую погоду видимость может ухудшаться дымом, пылью или мглою.
Явления - указаны атмосферные явления, наблюдавшиеся в срок или в последний час перед сроком; фигурными скобками обозначены явления, наблюдавшиеся между сроками (за 1-3 часа до срока); квадратными скобками обозначены град или гололедные отложения с указанием их диаметра в мм.
Облачность - указаны через наклонную черту общая и нижняя облачность в баллах и высота нижней границы облаков в метрах; квадратными скобками обозначены формы облаков: Ci - перистые, Cs - перисто-слоистые, Cc - перисто-кучевые, Ac - высококучевые, As - высокослоистые, Sc - слоисто-кучевые, Ns - слоисто-дождевые, Cu - кучевые, Cb - кучево-дождевые. Подробнее классификацию облаков см. в Атласе облаков (PDF).
T - Температура воздуха - температура, измеренная на высоте 2 м над землей.
Td - Температура точки росы - температура, при понижении до которой содержащийся в воздухе водяной пар достигнет насыщения.
f - Относительная влажность воздуха - влажноcть воздуха, измеренная на высоте 2 м над землей.
Te - Эффективная температура - температура, которую ощущает одетый по сезону человек в тени. Характеристика душности погоды. При расчете учитывается влияние влажности воздуха и скорости ветра на теплоощущения человека.
Tes - Эффективная температура на солнце - температура, которую ощущает человек, с поправкой на солнечный нагрев. Характеристика знойности погоды. Зависит от высоты солнца над горизонтом, облачности и скорости ветра. Ночью, в пасмурную погоду, а также при ветре 12 м/с и более поправка равна нулю.
P - Атмосферное давление - приведенное к уровню моря атмосферное давление.
Po - Атмосферное давление - измеренное на уровне метеостанции атмосферное давление.
Tmin - Минимальная температура - минимум температуры воздуха на высоте 2 м над землей.
Tmax - Максимальная температура - максимум температуры воздуха на высоте 2 м над землей.
R - Количество осадков - Количество выпавших осадков за период времени, мм. При наведении курсора мыши на число - период времени, за который выпало указанное количество осадков.
R24 - Количество осадков - Количество выпавших осадков за 24 часа, мм.
S - Снежный покров - Высота снежного покрова, см. При наведении курсора мыши на число - состояние снежного покрова и степень покрытия местности в баллах.